| time (UTC) | temp F | wind direction | speed MPH | gust MPH | rain 1hr in | rain 24hr in | rain mn in | humidity % | barometer mb |
| 20260903233249 | 75 | 36 | 0.0 | 0.0 | 0.00 | 0.02 | 0.02 | 85 | 1010.3 |
| 20260903232755 | 76 | 36 | 0.0 | 0.0 | 0.00 | 0.02 | 0.02 | 86 | 1010.3 |
| 20260903232305 | 76 | 36 | 0.0 | 0.0 | 0.00 | 0.02 | 0.02 | 85 | 1010.1 |
| 20260903231811 | 76 | 36 | 0.0 | 0.0 | 0.00 | 0.02 | 0.02 | 85 | 1010.1 |
| 20260903231316 | 76 | 36 | 0.0 | 1.0 | 0.00 | 0.02 | 0.02 | 85 | 1010.1 |
| 20260903230757 | 76 | 36 | 0.0 | 1.0 | 0.00 | 0.02 | 0.02 | 85 | 1010.4 |
| 20260903230255 | 76 | 36 | 0.0 | 0.0 | 0.00 | 0.02 | 0.02 | 84 | 1010.4 |
| 20260903225750 | 77 | 36 | 0.0 | 1.0 | 0.00 | 0.02 | 0.02 | 84 | 1010.4 |
| 20260903225251 | 77 | 36 | 0.0 | 1.0 | 0.00 | 0.02 | 0.02 | 84 | 1010.5 |
| 20260903224817 | 77 | 36 | 0.0 | 0.0 | 0.00 | 0.02 | 0.02 | 84 | 1010.5 |
| 20260903224254 | 77 | 36 | 0.0 | 0.0 | 0.00 | 0.02 | 0.02 | 83 | 1010.5 |
| 20260903223756 | 77 | 36 | 0.0 | 1.0 | 0.00 | 0.02 | 0.02 | 83 | 1010.5 |
| 20260903223301 | 77 | 36 | 0.0 | 1.0 | 0.00 | 0.02 | 0.02 | 83 | 1010.5 |
| 20260903222804 | 77 | 36 | 0.0 | 1.0 | 0.00 | 0.02 | 0.02 | 83 | 1010.5 |
| 20260903222307 | 77 | 36 | 0.0 | 1.0 | 0.00 | 0.02 | 0.02 | 82 | 1010.4 |
| 20260903221805 | 77 | 36 | 0.0 | 1.0 | 0.00 | 0.02 | 0.02 | 82 | 1010.4 |
| 20260903221307 | 78 | 33 | 0.0 | 1.0 | 0.00 | 0.02 | 0.02 | 82 | 1010.4 |
| 20260903220805 | 78 | 33 | 0.0 | 1.0 | 0.00 | 0.02 | 0.02 | 82 | 1010.4 |
| 20260903220300 | 78 | 37 | 0.0 | 1.0 | 0.00 | 0.02 | 0.02 | 82 | 1010.4 |
| 20260903215748 | 78 | 37 | 0.0 | 1.0 | 0.00 | 0.02 | 0.02 | 82 | 1010.4 |
| 20260903215305 | 78 | 37 | 0.0 | 1.0 | 0.00 | 0.02 | 0.02 | 82 | 1010.7 |
| 20260903214749 | 78 | 37 | 0.0 | 2.0 | 0.00 | 0.02 | 0.02 | 82 | 1010.7 |
| 20260903214252 | 78 | 37 | 0.0 | 2.0 | 0.00 | 0.02 | 0.02 | 81 | 1010.7 |
| 20260903213755 | 78 | 49 | 0.0 | 2.0 | 0.00 | 0.02 | 0.02 | 81 | 1010.9 |
| 20260903213258 | 78 | 29 | 0.0 | 2.0 | 0.00 | 0.02 | 0.02 | 81 | 1010.9 |
| 20260903212759 | 78 | 29 | 0.0 | 2.0 | 0.00 | 0.02 | 0.02 | 81 | 1010.9 |
| 20260903212258 | 78 | 26 | 1.0 | 2.0 | 0.00 | 0.02 | 0.02 | 81 | 1010.8 |
| 20260903211805 | 78 | 25 | 1.0 | 2.0 | 0.00 | 0.02 | 0.02 | 80 | 1010.8 |
| 20260903211258 | 78 | 266 | 0.0 | 2.0 | 0.00 | 0.02 | 0.02 | 80 | 1010.8 |
| 20260903210819 | 78 | 267 | 1.0 | 2.0 | 0.00 | 0.02 | 0.02 | 80 | 1010.6 |
| 20260903210307 | 78 | 290 | 0.0 | 3.0 | 0.00 | 0.02 | 0.02 | 80 | 1010.6 |
| 20260903205750 | 78 | 290 | 1.0 | 3.0 | 0.00 | 0.02 | 0.02 | 79 | 1010.6 |
| 20260903205254 | 78 | 211 | 1.0 | 3.0 | 0.00 | 0.02 | 0.02 | 80 | 1010.8 |
| 20260903204817 | 78 | 283 | 1.0 | 3.0 | 0.00 | 0.02 | 0.02 | 80 | 1010.8 |
| 20260903204256 | 78 | 5 | 1.0 | 3.0 | 0.00 | 0.02 | 0.02 | 79 | 1010.8 |
| 20260903203800 | 78 | 278 | 0.0 | 1.0 | 0.00 | 0.02 | 0.02 | 81 | 1010.6 |
| 20260903203304 | 78 | 265 | 0.0 | 1.0 | 0.00 | 0.02 | 0.02 | 80 | 1010.6 |
| 20260903202806 | 78 | 265 | 0.0 | 1.0 | 0.00 | 0.02 | 0.02 | 81 | 1010.6 |
| 20260903202248 | 78 | 200 | 0.0 | 1.0 | 0.00 | 0.02 | 0.02 | 82 | 1010.6 |
| 20260903201811 | 77 | 200 | 0.0 | 1.0 | 0.00 | 0.02 | 0.02 | 80 | 1010.6 |
| 20260903201259 | 77 | 200 | 0.0 | 1.0 | 0.00 | 0.02 | 0.02 | 80 | 1010.6 |
| 20260903200802 | 77 | 200 | 0.0 | 1.0 | 0.00 | 0.02 | 0.02 | 80 | 1010.9 |
| 20260903200253 | 78 | 200 | 0.0 | 1.0 | 0.00 | 0.02 | 0.02 | 80 | 1010.9 |
| 20260903195753 | 78 | 200 | 0.0 | 2.0 | 0.00 | 0.02 | 0.02 | 79 | 1010.9 |
| 20260903195257 | 78 | 200 | 0.0 | 2.0 | 0.00 | 0.02 | 0.02 | 79 | 1011.0 |
| 20260903194756 | 78 | 200 | 0.0 | 0.0 | 0.00 | 0.02 | 0.02 | 79 | 1011.0 |
| 20260903194307 | 78 | 200 | 0.0 | 2.0 | 0.00 | 0.02 | 0.02 | 79 | 1011.0 |
| 20260903193751 | 78 | 203 | 0.0 | 1.0 | 0.00 | 0.02 | 0.02 | 78 | 1011.2 |
| 20260903193251 | 78 | 203 | 0.0 | 3.0 | 0.00 | 0.02 | 0.02 | 78 | 1011.2 |
| 20260903192749 | 78 | 203 | 0.0 | 3.0 | 0.00 | 0.02 | 0.02 | 78 | 1011.2 |
| 20260903192313 | 78 | 219 | 1.0 | 2.0 | 0.00 | 0.02 | 0.02 | 78 | 1011.2 |
| 20260903191754 | 78 | 229 | 0.0 | 3.0 | 0.00 | 0.02 | 0.02 | 79 | 1011.2 |
| 20260903191314 | 78 | 229 | 0.0 | 3.0 | 0.00 | 0.02 | 0.02 | 79 | 1011.2 |
| 20260903190755 | 78 | 225 | 0.0 | 2.0 | 0.00 | 0.02 | 0.02 | 81 | 1011.3 |
| 20260903190305 | 77 | 225 | 0.0 | 2.0 | 0.00 | 0.02 | 0.02 | 79 | 1011.3 |
| 20260903185803 | 77 | 225 | 0.0 | 2.0 | 0.00 | 0.02 | 0.02 | 79 | 1011.3 |
| 20260903185306 | 77 | 225 | 1.0 | 3.0 | 0.00 | 0.02 | 0.02 | 79 | 1011.4 |
| 20260903184803 | 77 | 225 | 1.0 | 3.0 | 0.00 | 0.02 | 0.02 | 78 | 1011.4 |
| 20260903184248 | 77 | 244 | 1.0 | 3.0 | 0.00 | 0.02 | 0.02 | 78 | 1011.4 |
| 20260903183825 | 77 | 250 | 1.0 | 3.0 | 0.00 | 0.02 | 0.02 | 79 | 1011.5 |
| 20260903183300 | 77 | 220 | 0.0 | 3.0 | 0.00 | 0.02 | 0.02 | 79 | 1011.5 |
| 20260903182756 | 77 | 220 | 0.0 | 3.0 | 0.00 | 0.02 | 0.02 | 80 | 1011.5 |
| 20260903182256 | 77 | 217 | 1.0 | 4.0 | 0.00 | 0.02 | 0.02 | 81 | 1011.6 |
| 20260903181818 | 77 | 217 | 0.0 | 4.0 | 0.00 | 0.02 | 0.02 | 79 | 1011.6 |
| 20260903181301 | 77 | 221 | 0.0 | 0.0 | 0.00 | 0.02 | 0.02 | 79 | 1011.6 |
| 20260903180826 | 77 | 221 | 0.0 | 0.0 | 0.00 | 0.02 | 0.02 | 79 | 1011.6 |
| 20260903180318 | 77 | 221 | 0.0 | 4.0 | 0.00 | 0.02 | 0.02 | 80 | 1011.6 |
| 20260903175817 | 77 | 221 | 1.0 | 4.0 | 0.00 | 0.02 | 0.02 | 79 | 1011.6 |
| 20260903175257 | 77 | 277 | 1.0 | 2.0 | 0.00 | 0.02 | 0.02 | 79 | 1011.7 |
| 20260903174754 | 77 | 266 | 0.0 | 3.0 | 0.00 | 0.02 | 0.02 | 79 | 1011.7 |
| 20260903174253 | 77 | 267 | 0.0 | 3.0 | 0.00 | 0.02 | 0.02 | 78 | 1011.7 |
| 20260903173812 | 77 | 270 | 1.0 | 3.0 | 0.00 | 0.02 | 0.02 | 79 | 1011.8 |
| 20260903173250 | 77 | 186 | 1.0 | 3.0 | 0.00 | 0.02 | 0.02 | 79 | 1011.8 |
| 20260903172749 | 77 | 184 | 1.0 | 4.0 | 0.00 | 0.02 | 0.02 | 80 | 1011.8 |
| 20260903172251 | 77 | 313 | 0.0 | 2.0 | 0.00 | 0.02 | 0.02 | 81 | 1012.0 |
| 20260903171759 | 76 | 262 | 0.0 | 3.0 | 0.00 | 0.02 | 0.02 | 82 | 1012.0 |
| 20260903171257 | 76 | 26 | 1.0 | 3.0 | 0.00 | 0.02 | 0.02 | 84 | 1012.0 |
| 20260903170751 | 75 | 234 | 1.0 | 3.0 | 0.00 | 0.02 | 0.02 | 84 | 1012.1 |
| 20260903170305 | 75 | 234 | 1.0 | 3.0 | 0.00 | 0.02 | 0.02 | 85 | 1012.1 |
| 20260903165759 | 74 | 232 | 1.0 | 3.0 | 0.00 | 0.02 | 0.02 | 86 | 1012.1 |
| 20260903165306 | 74 | 232 | 0.0 | 2.0 | 0.00 | 0.02 | 0.02 | 85 | 1012.3 |
| 20260903164823 | 74 | 235 | 0.0 | 2.0 | 0.00 | 0.02 | 0.02 | 87 | 1012.3 |
| 20260903164259 | 73 | 238 | 0.0 | 0.0 | 0.00 | 0.02 | 0.02 | 87 | 1012.3 |
| 20260903163815 | 73 | 108 | 0.0 | 0.0 | 0.00 | 0.02 | 0.02 | 88 | 1012.5 |
| 20260903163254 | 73 | 108 | 0.0 | 0.0 | 0.00 | 0.02 | 0.02 | 88 | 1012.5 |
| 20260903162756 | 72 | 109 | 0.0 | 0.0 | 0.00 | 0.02 | 0.02 | 88 | 1012.5 |
| 20260903162253 | 72 | 109 | 0.0 | 0.0 | 0.00 | 0.02 | 0.02 | 88 | 1012.5 |
| 20260903161754 | 72 | 109 | 0.0 | 2.0 | 0.00 | 0.02 | 0.02 | 89 | 1012.5 |
| 20260903161305 | 72 | 109 | 0.0 | 2.0 | 0.00 | 0.02 | 0.02 | 90 | 1012.5 |
| 20260903160802 | 72 | 83 | 0.0 | 2.0 | 0.00 | 0.02 | 0.02 | 91 | 1012.6 |
| 20260903160254 | 72 | 83 | 0.0 | 1.0 | 0.00 | 0.02 | 0.02 | 93 | 1012.6 |
| 20260903155751 | 70 | 83 | 0.0 | 2.0 | 0.00 | 0.02 | 0.02 | 92 | 1012.6 |
| 20260903155249 | 70 | 82 | 0.0 | 2.0 | 0.00 | 0.02 | 0.02 | 93 | 1012.6 |
| 20260903154746 | 69 | 76 | 1.0 | 2.0 | 0.00 | 0.02 | 0.02 | 93 | 1012.6 |
| 20260903154249 | 69 | 66 | 1.0 | 2.0 | 0.00 | 0.02 | 0.02 | 94 | 1012.6 |
| 20260903153753 | 69 | 360 | 0.0 | 2.0 | 0.00 | 0.02 | 0.02 | 94 | 1012.6 |
| 20260903153255 | 68 | 360 | 1.0 | 2.0 | 0.00 | 0.02 | 0.02 | 94 | 1012.6 |
| 20260903152758 | 68 | 360 | 0.0 | 2.0 | 0.00 | 0.02 | 0.02 | 94 | 1012.6 |
| 20260903152248 | 68 | 360 | 0.0 | 2.0 | 0.00 | 0.02 | 0.02 | 95 | 1012.9 |
| 20260903151805 | 67 | 360 | 0.0 | 1.0 | 0.00 | 0.02 | 0.02 | 95 | 1012.9 |
| 20260903151304 | 67 | 360 | 0.0 | 2.0 | 0.00 | 0.02 | 0.02 | 95 | 1012.9 |
| 20260903150807 | 67 | 360 | 0.0 | 2.0 | 0.00 | 0.02 | 0.02 | 95 | 1013.0 |
| 20260903150254 | 67 | 360 | 0.0 | 4.0 | 0.00 | 0.02 | 0.02 | 95 | 1013.0 |
| 20260903145753 | 67 | 360 | 1.0 | 4.0 | 0.00 | 0.02 | 0.02 | 95 | 1013.0 |
| 20260903145306 | 66 | 360 | 0.0 | 3.0 | 0.00 | 0.02 | 0.02 | 95 | 1013.1 |
| 20260903144825 | 66 | 300 | 1.0 | 3.0 | 0.00 | 0.02 | 0.02 | 95 | 1013.1 |
| 20260903144303 | 66 | 360 | 0.0 | 2.0 | 0.00 | 0.02 | 0.02 | 95 | 1013.1 |
| 20260903143800 | 66 | 311 | 0.0 | 1.0 | 0.00 | 0.02 | 0.02 | 95 | 1013.1 |
| 20260903143300 | 65 | 311 | 0.0 | 2.0 | 0.00 | 0.02 | 0.02 | 95 | 1013.1 |
| 20260903142801 | 65 | 311 | 0.0 | 2.0 | 0.00 | 0.02 | 0.02 | 95 | 1013.1 |
| 20260903142320 | 65 | 306 | 0.0 | 0.0 | 0.00 | 0.02 | 0.02 | 95 | 1013.3 |
| 20260903141755 | 65 | 299 | 0.0 | 0.0 | 0.00 | 0.02 | 0.02 | 95 | 1013.3 |
| 20260903141256 | 65 | 299 | 0.0 | 0.0 | 0.00 | 0.02 | 0.02 | 95 | 1013.3 |
| 20260903140755 | 65 | 300 | 0.0 | 0.0 | 0.00 | 0.02 | 0.02 | 95 | 1013.4 |
| 20260903140250 | 65 | 300 | 0.0 | 0.0 | 0.00 | 0.02 | 0.02 | 95 | 1013.4 |
| 20260903135751 | 64 | 300 | 0.0 | 0.0 | 0.00 | 0.02 | 0.02 | 95 | 1013.4 |
| 20260903135253 | 64 | 300 | 0.0 | 0.0 | 0.00 | 0.02 | 0.02 | 95 | 1013.2 |
| 20260903134756 | 64 | 300 | 0.0 | 1.0 | 0.00 | 0.02 | 0.02 | 95 | 1013.2 |
| 20260903134259 | 64 | 300 | 0.0 | 1.0 | 0.00 | 0.02 | 0.02 | 95 | 1013.2 |
| 20260903133822 | 64 | 300 | 0.0 | 0.0 | 0.00 | 0.02 | 0.02 | 95 | 1013.6 |
| 20260903133303 | 64 | 300 | 0.0 | 0.0 | 0.00 | 0.02 | 0.02 | 95 | 1013.6 |
| 20260903132816 | 64 | 300 | 0.0 | 0.0 | 0.00 | 0.02 | 0.02 | 95 | 1013.6 |
| 20260903132313 | 63 | 300 | 0.0 | 0.0 | 0.00 | 0.02 | 0.02 | 95 | 1013.7 |
| 20260903131752 | 63 | 300 | 0.0 | 0.0 | 0.00 | 0.02 | 0.02 | 95 | 1013.7 |
| 20260903131253 | 63 | 298 | 0.0 | 0.0 | 0.00 | 0.02 | 0.02 | 95 | 1013.7 |
| 20260903130752 | 63 | 298 | 0.0 | 0.0 | 0.00 | 0.02 | 0.02 | 95 | 1013.7 |
| 20260903130248 | 63 | 298 | 0.0 | 0.0 | 0.00 | 0.02 | 0.02 | 95 | 1013.7 |
| 20260903125751 | 63 | 298 | 0.0 | 0.0 | 0.00 | 0.02 | 0.02 | 95 | 1013.7 |
| 20260903125251 | 63 | 298 | 0.0 | 0.0 | 0.00 | 0.02 | 0.02 | 95 | 1014.0 |
| 20260903124751 | 63 | 298 | 0.0 | 0.0 | 0.00 | 0.02 | 0.02 | 95 | 1014.0 |
| 20260903124255 | 63 | 298 | 0.0 | 0.0 | 0.00 | 0.02 | 0.02 | 95 | 1014.0 |
| 20260903123755 | 63 | 298 | 0.0 | 0.0 | 0.00 | 0.02 | 0.02 | 95 | 1014.1 |
| 20260903123255 | 63 | 298 | 0.0 | 0.0 | 0.00 | 0.02 | 0.02 | 95 | 1014.1 |
| 20260903122818 | 63 | 298 | 0.0 | 0.0 | 0.00 | 0.02 | 0.02 | 94 | 1014.1 |
| 20260903122255 | 63 | 298 | 0.0 | 0.0 | 0.00 | 0.02 | 0.02 | 94 | 1014.2 |
| 20260903121756 | 63 | 298 | 0.0 | 0.0 | 0.00 | 0.02 | 0.02 | 94 | 1014.2 |
| 20260903121254 | 63 | 298 | 0.0 | 0.0 | 0.00 | 0.02 | 0.02 | 94 | 1014.2 |
| 20260903120806 | 63 | 298 | 0.0 | 0.0 | 0.00 | 0.02 | 0.02 | 94 | 1014.1 |
| 20260903120301 | 63 | 298 | 0.0 | 0.0 | 0.00 | 0.02 | 0.02 | 94 | 1014.1 |
| 20260903115803 | 63 | 298 | 0.0 | 0.0 | 0.00 | 0.02 | 0.02 | 94 | 1014.1 |
| 20260903115305 | 63 | 298 | 0.0 | 0.0 | 0.00 | 0.02 | 0.02 | 94 | 1014.4 |
| 20260903114827 | 63 | 298 | 0.0 | 0.0 | 0.00 | 0.02 | 0.02 | 94 | 1014.4 |
| 20260903114305 | 63 | 298 | 0.0 | 0.0 | 0.00 | 0.02 | 0.02 | 94 | 1014.4 |
| 20260903113805 | 63 | 298 | 0.0 | 0.0 | 0.00 | 0.02 | 0.02 | 94 | 1014.1 |
| 20260903113304 | 63 | 298 | 0.0 | 0.0 | 0.00 | 0.02 | 0.02 | 94 | 1014.1 |
| 20260903112801 | 63 | 298 | 0.0 | 0.0 | 0.00 | 0.02 | 0.02 | 94 | 1014.1 |
| 20260903112305 | 63 | 298 | 0.0 | 0.0 | 0.00 | 0.02 | 0.02 | 94 | 1014.4 |
| 20260903111805 | 62 | 298 | 0.0 | 0.0 | 0.00 | 0.02 | 0.02 | 94 | 1014.4 |
| 20260903111251 | 62 | 298 | 0.0 | 0.0 | 0.00 | 0.02 | 0.02 | 93 | 1014.4 |
| 20260903110754 | 62 | 298 | 0.0 | 0.0 | 0.00 | 0.02 | 0.02 | 93 | 1014.4 |
| 20260903110248 | 62 | 298 | 0.0 | 0.0 | 0.00 | 0.02 | 0.02 | 93 | 1014.4 |
| 20260903105800 | 62 | 298 | 0.0 | 0.0 | 0.00 | 0.02 | 0.02 | 93 | 1014.4 |
| 20260903105300 | 62 | 298 | 0.0 | 0.0 | 0.00 | 0.02 | 0.02 | 93 | 1014.2 |
| 20260903104802 | 62 | 298 | 0.0 | 0.0 | 0.00 | 0.02 | 0.02 | 93 | 1014.2 |
| 20260903104250 | 62 | 298 | 0.0 | 0.0 | 0.00 | 0.02 | 0.02 | 93 | 1014.2 |
| 20260903103754 | 62 | 298 | 0.0 | 0.0 | 0.00 | 0.02 | 0.02 | 93 | 1014.2 |
| 20260903103254 | 62 | 298 | 0.0 | 0.0 | 0.00 | 0.02 | 0.02 | 93 | 1014.2 |
| 20260903102755 | 62 | 298 | 0.0 | 0.0 | 0.00 | 0.02 | 0.02 | 93 | 1014.2 |
| 20260903102255 | 62 | 298 | 0.0 | 0.0 | 0.00 | 0.02 | 0.02 | 93 | 1014.1 |
| 20260903101805 | 62 | 298 | 0.0 | 0.0 | 0.00 | 0.02 | 0.02 | 93 | 1014.1 |
| 20260903101303 | 62 | 298 | 0.0 | 0.0 | 0.00 | 0.02 | 0.02 | 93 | 1014.1 |
| 20260903100807 | 62 | 298 | 0.0 | 0.0 | 0.00 | 0.02 | 0.02 | 93 | 1014.1 |
| 20260903100302 | 62 | 298 | 0.0 | 0.0 | 0.00 | 0.02 | 0.02 | 93 | 1014.1 |
| 20260903095804 | 62 | 298 | 0.0 | 0.0 | 0.01 | 0.02 | 0.02 | 93 | 1014.1 |
| 20260903095258 | 62 | 298 | 0.0 | 0.0 | 0.01 | 0.02 | 0.02 | 93 | 1014.1 |
| 20260903094755 | 63 | 298 | 0.0 | 0.0 | 0.01 | 0.02 | 0.02 | 93 | 1014.1 |
| 20260903094250 | 63 | 298 | 0.0 | 0.0 | 0.01 | 0.02 | 0.02 | 92 | 1014.1 |
| 20260903093756 | 63 | 298 | 0.0 | 0.0 | 0.01 | 0.02 | 0.02 | 92 | 1014.4 |
| 20260903093304 | 63 | 298 | 0.0 | 0.0 | 0.01 | 0.02 | 0.02 | 92 | 1014.4 |
| 20260903092823 | 63 | 298 | 0.0 | 0.0 | 0.01 | 0.02 | 0.02 | 92 | 1014.4 |
| 20260903092326 | 63 | 298 | 0.0 | 0.0 | 0.01 | 0.02 | 0.02 | 92 | 1014.2 |
| 20260903091802 | 63 | 298 | 0.0 | 0.0 | 0.01 | 0.02 | 0.02 | 92 | 1014.2 |
| 20260903091301 | 63 | 298 | 0.0 | 0.0 | 0.01 | 0.02 | 0.02 | 92 | 1014.2 |
| 20260903090800 | 63 | 298 | 0.0 | 0.0 | 0.01 | 0.02 | 0.02 | 92 | 1014.6 |
| 20260903090313 | 63 | 298 | 0.0 | 0.0 | 0.01 | 0.02 | 0.02 | 91 | 1014.6 |
| 20260903085748 | 63 | 298 | 0.0 | 0.0 | 0.00 | 0.01 | 0.01 | 91 | 1014.6 |
| 20260903085247 | 63 | 298 | 0.0 | 0.0 | 0.00 | 0.01 | 0.01 | 91 | 1014.8 |
| 20260903084810 | 63 | 298 | 0.0 | 0.0 | 0.00 | 0.01 | 0.01 | 91 | 1014.8 |
| 20260903084247 | 63 | 298 | 0.0 | 0.0 | 0.00 | 0.01 | 0.01 | 91 | 1014.8 |
| 20260903083806 | 63 | 298 | 0.0 | 0.0 | 0.00 | 0.01 | 0.01 | 91 | 1014.8 |
| 20260903083321 | 63 | 298 | 0.0 | 0.0 | 0.00 | 0.01 | 0.01 | 91 | 1014.8 |
| 20260903082802 | 63 | 298 | 0.0 | 0.0 | 0.00 | 0.01 | 0.01 | 91 | 1014.8 |
| 20260903082307 | 63 | 298 | 0.0 | 0.0 | 0.00 | 0.01 | 0.01 | 91 | 1014.8 |
| 20260903081749 | 63 | 298 | 0.0 | 0.0 | 0.00 | 0.01 | 0.01 | 91 | 1014.8 |
| 20260903081254 | 63 | 298 | 0.0 | 0.0 | 0.00 | 0.01 | 0.01 | 91 | 1014.8 |
| 20260903080750 | 63 | 298 | 0.0 | 0.0 | 0.00 | 0.01 | 0.01 | 90 | 1014.8 |
| 20260903080307 | 63 | 298 | 0.0 | 0.0 | 0.01 | 0.01 | 0.01 | 90 | 1014.8 |
| 20260903075805 | 63 | 298 | 0.0 | 0.0 | 0.01 | 0.01 | 0.01 | 90 | 1014.8 |
| 20260903075306 | 63 | 298 | 0.0 | 0.0 | 0.01 | 0.01 | 0.01 | 90 | 1014.9 |
| 20260903074749 | 63 | 298 | 0.0 | 0.0 | 0.01 | 0.01 | 0.01 | 90 | 1014.9 |
| 20260903074301 | 63 | 298 | 0.0 | 0.0 | 0.01 | 0.01 | 0.01 | 90 | 1014.9 |
| 20260903073749 | 63 | 298 | 0.0 | 2.0 | 0.01 | 0.01 | 0.01 | 90 | 1015.0 |
| 20260903073306 | 63 | 298 | 0.0 | 2.0 | 0.01 | 0.01 | 0.01 | 90 | 1015.0 |
| 20260903072826 | 63 | 298 | 0.0 | 1.0 | 0.01 | 0.01 | 0.01 | 90 | 1015.0 |
| 20260903072307 | 63 | 298 | 0.0 | 2.0 | 0.01 | 0.01 | 0.01 | 90 | 1015.3 |
| 20260903071747 | 63 | 298 | 0.0 | 2.0 | 0.01 | 0.01 | 0.01 | 90 | 1015.3 |
| 20260903071251 | 63 | 298 | 0.0 | 1.0 | 0.01 | 0.01 | 0.01 | 90 | 1015.3 |
| 20260903070747 | 63 | 298 | 0.0 | 0.0 | 0.01 | 0.01 | 0.01 | 89 | 1015.3 |
| 20260903070305 | 63 | 298 | 0.0 | 0.0 | 0.00 | 0.00 | 0.00 | 89 | 1015.3 |
| 20260903065802 | 63 | 298 | 0.0 | 0.0 | 0.00 | 0.00 | 0.00 | 89 | 1015.3 |
| 20260903065305 | 64 | 298 | 0.0 | 1.0 | 0.00 | 0.00 | 0.00 | 88 | 1014.1 |
| 20260903064745 | 64 | 313 | 0.0 | 3.0 | 0.00 | 0.00 | 0.00 | 88 | 1014.1 |
| 20260903064327 | 64 | 313 | 1.0 | 5.0 | 0.00 | 0.00 | 0.00 | 88 | 1014.1 |
| 20260903063749 | 64 | 135 | 3.0 | 4.0 | 0.00 | 0.00 | 0.00 | 88 | 1015.3 |
| 20260903063250 | 64 | 43 | 0.0 | 0.0 | 0.00 | 0.00 | 0.00 | 87 | 1015.3 |
| 20260903062805 | 64 | 43 | 0.0 | 0.0 | 0.00 | 0.00 | 0.00 | 87 | 1015.3 |
| 20260903062306 | 64 | 43 | 0.0 | 0.0 | 0.00 | 0.00 | 0.00 | 87 | 1015.2 |
| 20260903061804 | 64 | 42 | 0.0 | 0.0 | 0.00 | 0.00 | 0.00 | 86 | 1015.2 |
| 20260903061307 | 64 | 43 | 0.0 | 0.0 | 0.00 | 0.00 | 0.00 | 86 | 1015.2 |
| 20260903060750 | 65 | 43 | 0.0 | 0.0 | 0.00 | 0.00 | 0.00 | 85 | 1015.9 |
| 20260903060301 | 65 | 43 | 0.0 | 0.0 | 0.00 | 0.00 | 0.00 | 85 | 1015.9 |
| 20260903055759 | 65 | 42 | 0.0 | 0.0 | 0.00 | 0.00 | 0.00 | 85 | 1015.9 |
| 20260903055256 | 65 | 43 | 0.0 | 0.0 | 0.00 | 0.00 | 0.00 | 84 | 1016.2 |
| 20260903054819 | 65 | 319 | 0.0 | 0.0 | 0.00 | 0.00 | 0.00 | 84 | 1016.2 |
| 20260903054258 | 65 | 31 | 0.0 | 0.0 | 0.00 | 0.00 | 0.00 | 83 | 1016.2 |
| 20260903053754 | 65 | 31 | 0.0 | 0.0 | 0.00 | 0.00 | 0.00 | 83 | 1016.6 |
| 20260903053253 | 65 | 31 | 0.0 | 0.0 | 0.00 | 0.00 | 0.00 | 83 | 1016.6 |
| 20260903052758 | 65 | 28 | 0.0 | 0.0 | 0.00 | 0.00 | 0.00 | 82 | 1016.6 |
| 20260903052259 | 65 | 28 | 0.0 | 0.0 | 0.00 | 0.00 | 0.00 | 82 | 1016.7 |
| 20260903051758 | 65 | 28 | 0.0 | 0.0 | 0.00 | 0.00 | 0.00 | 81 | 1016.7 |
| 20260903051248 | 65 | 9 | 0.0 | 0.0 | 0.00 | 0.00 | 0.00 | 81 | 1016.7 |
| 20260903050753 | 65 | 14 | 0.0 | 0.0 | 0.00 | 0.00 | 0.00 | 81 | 1016.7 |
| 20260903050245 | 65 | 14 | 0.0 | 0.0 | 0.00 | 0.00 | 0.00 | 81 | 1016.7 |
| 20260903045806 | 65 | 14 | 0.0 | 0.0 | 0.00 | 0.00 | 0.00 | 80 | 1016.7 |
| 20260903045249 | 65 | 14 | 0.0 | 0.0 | 0.00 | 0.00 | 0.00 | 80 | 1016.7 |
| 20260903044752 | 66 | 14 | 0.0 | 0.0 | 0.00 | 0.00 | 0.00 | 79 | 1016.7 |
| 20260903044255 | 66 | 14 | 0.0 | 0.0 | 0.00 | 0.00 | 0.00 | 80 | 1016.7 |
| 20260903043825 | 66 | 14 | 0.0 | 1.0 | 0.00 | 0.00 | 0.00 | 79 | 1016.7 |
| 20260903043306 | 66 | 14 | 0.0 | 2.0 | 0.00 | 0.00 | 0.00 | 79 | 1016.7 |
| 20260903042748 | 66 | 14 | 0.0 | 3.0 | 0.00 | 0.00 | 0.00 | 79 | 1016.7 |
| 20260903042253 | 66 | 313 | 0.0 | 1.0 | 0.00 | 0.00 | 0.00 | 79 | 1016.9 |
| 20260903041756 | 66 | 313 | 0.0 | 1.0 | 0.00 | 0.00 | 0.00 | 79 | 1016.9 |
| 20260903041305 | 66 | 313 | 0.0 | 3.0 | 0.00 | 0.00 | 0.00 | 79 | 1016.9 |
| 20260903040825 | 66 | 308 | 0.0 | 3.0 | 0.00 | 0.00 | 0.00 | 78 | 1017.2 |
| 20260903040252 | 66 | 308 | 0.0 | 2.0 | 0.00 | 0.00 | 0.00 | 79 | 1017.2 |
| 20260903035747 | 66 | 307 | 0.0 | 0.0 | 0.00 | 0.00 | 0.00 | 78 | 1017.2 |
| 20260903035306 | 66 | 307 | 0.0 | 0.0 | 0.00 | 0.00 | 0.00 | 79 | 1016.9 |
| 20260903034749 | 66 | 307 | 0.0 | 0.0 | 0.00 | 0.00 | 0.00 | 79 | 1016.9 |
| 20260903034251 | 66 | 308 | 0.0 | 0.0 | 0.00 | 0.00 | 0.00 | 79 | 1016.9 |
| 20260903033749 | 66 | 308 | 0.0 | 0.0 | 0.00 | 0.00 | 0.00 | 80 | 1016.9 |
| 20260903033324 | 66 | 308 | 0.0 | 2.0 | 0.00 | 0.00 | 0.00 | 80 | 1016.9 |
| 20260903032816 | 66 | 308 | 1.0 | 2.0 | 0.00 | 0.00 | 0.00 | 80 | 1016.9 |
| 20260903032253 | 66 | 308 | 0.0 | 1.0 | 0.00 | 0.00 | 0.00 | 81 | 1017.1 |
| 20260903031752 | 66 | 308 | 0.0 | 0.0 | 0.00 | 0.00 | 0.00 | 81 | 1017.1 |
| 20260903031251 | 66 | 308 | 0.0 | 0.0 | 0.00 | 0.00 | 0.00 | 81 | 1017.1 |
| 20260903030754 | 66 | 308 | 0.0 | 0.0 | 0.00 | 0.00 | 0.00 | 81 | 1017.2 |
| 20260903030249 | 66 | 308 | 0.0 | 0.0 | 0.00 | 0.00 | 0.00 | 81 | 1017.2 |
| 20260903025827 | 66 | 308 | 0.0 | 1.0 | 0.00 | 0.00 | 0.00 | 80 | 1017.2 |
| 20260903025327 | 66 | 308 | 0.0 | 1.0 | 0.00 | 0.00 | 0.00 | 80 | 1017.3 |
| 20260903024808 | 66 | 308 | 0.0 | 2.0 | 0.00 | 0.00 | 0.00 | 80 | 1017.3 |
| 20260903024256 | 66 | 308 | 1.0 | 2.0 | 0.00 | 0.00 | 0.00 | 80 | 1017.3 |
| 20260903023757 | 66 | 308 | 0.0 | 1.0 | 0.00 | 0.00 | 0.00 | 81 | 1017.7 |
| 20260903023255 | 66 | 308 | 0.0 | 1.0 | 0.00 | 0.00 | 0.00 | 81 | 1017.7 |
| 20260903022755 | 66 | 308 | 0.0 | 2.0 | 0.00 | 0.00 | 0.00 | 80 | 1017.7 |
| 20260903022257 | 67 | 307 | 0.0 | 2.0 | 0.00 | 0.00 | 0.00 | 81 | 1017.8 |
| 20260903021757 | 67 | 290 | 0.0 | 0.0 | 0.00 | 0.00 | 0.00 | 82 | 1017.8 |
| 20260903021253 | 67 | 290 | 0.0 | 1.0 | 0.00 | 0.00 | 0.00 | 82 | 1017.8 |
| 20260903020755 | 67 | 290 | 0.0 | 0.0 | 0.00 | 0.00 | 0.00 | 81 | 1018.3 |
| 20260903020306 | 67 | 290 | 0.0 | 0.0 | 0.00 | 0.00 | 0.00 | 81 | 1018.3 |
| 20260903015748 | 67 | 290 | 0.0 | 0.0 | 0.00 | 0.00 | 0.00 | 81 | 1018.3 |
| 20260903015250 | 67 | 290 | 0.0 | 0.0 | 0.00 | 0.00 | 0.00 | 81 | 1018.2 |
| 20260903014751 | 67 | 290 | 0.0 | 0.0 | 0.00 | 0.00 | 0.00 | 80 | 1018.2 |
| 20260903014250 | 67 | 290 | 0.0 | 1.0 | 0.00 | 0.00 | 0.00 | 81 | 1018.2 |
| 20260903013807 | 67 | 290 | 0.0 | 0.0 | 0.00 | 0.00 | 0.00 | 81 | 1018.2 |
| 20260903013303 | 67 | 290 | 0.0 | 0.0 | 0.00 | 0.00 | 0.00 | 81 | 1018.2 |
| 20260903012759 | 67 | 290 | 0.0 | 2.0 | 0.00 | 0.00 | 0.00 | 80 | 1018.2 |
| 20260903012318 | 67 | 290 | 0.0 | 2.0 | 0.00 | 0.00 | 0.00 | 80 | 1018.1 |
| 20260903011758 | 67 | 309 | 0.0 | 1.0 | 0.00 | 0.00 | 0.00 | 81 | 1018.1 |
| 20260903011257 | 67 | 309 | 0.0 | 1.0 | 0.00 | 0.00 | 0.00 | 81 | 1018.1 |
| 20260903010811 | 67 | 309 | 0.0 | 1.0 | 0.00 | 0.00 | 0.00 | 82 | 1018.2 |
| 20260903010321 | 67 | 309 | 0.0 | 1.0 | 0.00 | 0.00 | 0.00 | 82 | 1018.2 |
| 20260903005800 | 67 | 309 | 0.0 | 3.0 | 0.00 | 0.00 | 0.00 | 83 | 1018.2 |
| 20260903005306 | 67 | 309 | 1.0 | 3.0 | 0.00 | 0.00 | 0.00 | 83 | 1017.3 |
| 20260903004828 | 67 | 24 | 0.0 | 3.0 | 0.00 | 0.00 | 0.00 | 84 | 1017.3 |
| 20260903004246 | 68 | 346 | 0.0 | 3.0 | 0.00 | 0.00 | 0.00 | 85 | 1017.3 |
| 20260903003750 | 68 | 225 | 0.0 | 1.0 | 0.00 | 0.00 | 0.00 | 86 | 1017.4 |
| 20260903003253 | 68 | 225 | 0.0 | 1.0 | 0.00 | 0.00 | 0.00 | 86 | 1017.4 |
| 20260903002754 | 68 | 225 | 0.0 | 0.0 | 0.00 | 0.00 | 0.00 | 87 | 1017.4 |
| 20260903002308 | 68 | 225 | 0.0 | 0.0 | 0.00 | 0.00 | 0.00 | 87 | 1017.7 |
| 20260903001750 | 68 | 225 | 0.0 | 0.0 | 0.00 | 0.00 | 0.00 | 87 | 1017.7 |
| 20260903001249 | 68 | 225 | 0.0 | 0.0 | 0.00 | 0.00 | 0.00 | 87 | 1017.7 |
| 20260903000748 | 69 | 225 | 0.0 | 0.0 | 0.00 | 0.00 | 0.00 | 87 | 1017.7 |
| 20260903000310 | 69 | 225 | 0.0 | 1.0 | 0.00 | 0.00 | 0.00 | 88 | 1017.7 |
| 20260902235748 | 69 | 225 | 0.0 | 1.0 | 0.00 | 0.00 | 0.00 | 88 | 1017.7 |
| 20260902235251 | 69 | 225 | 0.0 | 0.0 | 0.00 | 0.00 | 0.00 | 88 | 1017.8 |
| 20260902234808 | 69 | 225 | 0.0 | 0.0 | 0.00 | 0.00 | 0.00 | 88 | 1017.8 |
| 20260902234324 | 69 | 225 | 0.0 | 0.0 | 0.00 | 0.00 | 0.00 | 87 | 1017.8 |
| 20260902233801 | 69 | 225 | 0.0 | 0.0 | 0.00 | 0.00 | 0.00 | 87 | 1017.8 |